| time (UTC) | temp F | wind direction | speed MPH | gust MPH | rain 1hr in | rain 24hr in | rain mn in | humidity % | barometer mb |
| 20260903081009 | 67 | 223 | 3.0 | 8.0 | 0.00 | 0.00 | 0.00 | 65 | 1021.4 |
| 20260903080009 | 66 | 250 | 3.0 | 9.0 | 0.00 | 0.00 | 0.00 | 63 | 1021.2 |
| 20260903075009 | 66 | 250 | 3.0 | 9.0 | 0.00 | 0.00 | 0.00 | 63 | 1021.2 |
| 20260903074009 | 65 | 236 | 3.0 | 10.0 | 0.00 | 0.00 | 0.00 | 66 | 1021.5 |
| 20260903073009 | 63 | 234 | 3.0 | 10.0 | 0.00 | 0.00 | 0.00 | 69 | 1021.6 |
| 20260903072009 | 62 | 267 | 4.0 | 8.0 | 0.00 | 0.00 | 0.00 | 71 | 1021.8 |
| 20260903071009 | 60 | 273 | 1.0 | 7.0 | 0.00 | 0.00 | 0.00 | 75 | 1021.8 |
| 20260903070009 | 58 | 303 | 0.0 | 0.0 | 0.00 | 0.00 | 0.00 | 78 | 1021.7 |
| 20260903065010 | 57 | 303 | 0.0 | 2.0 | 0.00 | 0.00 | 0.00 | 81 | 1021.7 |
| 20260903064009 | 56 | 303 | 0.0 | 1.0 | 0.00 | 0.00 | 0.00 | 82 | 1021.7 |
| 20260903063009 | 56 | 303 | 0.0 | 2.0 | 0.00 | 0.00 | 0.00 | 85 | 1021.8 |
| 20260903062009 | 55 | 303 | 0.0 | 0.0 | 0.00 | 0.00 | 0.00 | 90 | 1021.7 |
| 20260903061010 | 54 | 302 | 0.0 | 0.0 | 0.00 | 0.00 | 0.00 | 91 | 1021.8 |
| 20260903060009 | 54 | 302 | 0.0 | 0.0 | 0.00 | 0.00 | 0.00 | 91 | 1021.9 |
| 20260903055009 | 53 | 302 | 0.0 | 0.0 | 0.00 | 0.00 | 0.00 | 91 | 1021.8 |
| 20260903054009 | 53 | 302 | 1.0 | 3.0 | 0.00 | 0.00 | 0.00 | 91 | 1021.8 |
| 20260903053009 | 52 | 309 | 1.0 | 3.0 | 0.00 | 0.00 | 0.00 | 91 | 1021.5 |
| 20260903052009 | 51 | 313 | 0.0 | 2.0 | 0.00 | 0.00 | 0.00 | 89 | 1021.4 |
| 20260903051008 | 51 | 313 | 0.0 | 0.0 | 0.00 | 0.00 | 0.00 | 88 | 1021.3 |
| 20260903050009 | 51 | 313 | 0.0 | 0.0 | 0.00 | 0.00 | 0.00 | 87 | 1021.2 |
| 20260903045009 | 52 | 313 | 0.0 | 0.0 | 0.00 | 0.00 | 0.00 | 86 | 1021.1 |
| 20260903044009 | 52 | 313 | 0.0 | 0.0 | 0.00 | 0.00 | 0.00 | 85 | 1021.1 |
| 20260903043009 | 52 | 313 | 0.0 | 0.0 | 0.00 | 0.00 | 0.00 | 85 | 1021.3 |
| 20260903042014 | 52 | 313 | 0.0 | 0.0 | 0.00 | 0.00 | 0.00 | 84 | 1021.3 |
| 20260903041008 | 53 | 313 | 0.0 | 0.0 | 0.00 | 0.00 | 0.00 | 84 | 1021.3 |
| 20260903040009 | 53 | 313 | 0.0 | 0.0 | 0.00 | 0.00 | 0.00 | 84 | 1021.3 |
| 20260903035008 | 53 | 313 | 0.0 | 0.0 | 0.00 | 0.00 | 0.00 | 84 | 1021.3 |
| 20260903034008 | 53 | 313 | 0.0 | 0.0 | 0.00 | 0.00 | 0.00 | 84 | 1021.4 |
| 20260903033008 | 54 | 313 | 0.0 | 0.0 | 0.00 | 0.00 | 0.00 | 83 | 1021.3 |
| 20260903032008 | 54 | 313 | 0.0 | 0.0 | 0.00 | 0.00 | 0.00 | 83 | 1021.3 |
| 20260903031008 | 54 | 313 | 0.0 | 0.0 | 0.00 | 0.00 | 0.00 | 82 | 1021.3 |
| 20260903030008 | 54 | 313 | 1.0 | 2.0 | 0.00 | 0.00 | 0.00 | 82 | 1021.3 |
| 20260903025008 | 55 | 313 | 2.0 | 3.0 | 0.00 | 0.00 | 0.00 | 80 | 1021.4 |
| 20260903024008 | 55 | 313 | 2.0 | 3.0 | 0.00 | 0.00 | 0.00 | 80 | 1021.4 |
| 20260903023021 | 55 | 313 | 2.0 | 3.0 | 0.00 | 0.00 | 0.00 | 79 | 1021.4 |
| 20260903022012 | 55 | 313 | 1.0 | 3.0 | 0.00 | 0.00 | 0.00 | 78 | 1021.3 |
| 20260903021012 | 56 | 313 | 0.0 | 0.0 | 0.00 | 0.00 | 0.00 | 77 | 1021.1 |
| 20260903020012 | 56 | 313 | 0.0 | 0.0 | 0.00 | 0.00 | 0.00 | 76 | 1021.2 |
| 20260903015012 | 56 | 313 | 0.0 | 0.0 | 0.00 | 0.00 | 0.00 | 76 | 1021.2 |
| 20260903014012 | 57 | 313 | 0.0 | 0.0 | 0.00 | 0.00 | 0.00 | 74 | 1021.2 |
| 20260903013012 | 57 | 313 | 0.0 | 2.0 | 0.00 | 0.00 | 0.00 | 74 | 1021.3 |
| 20260903012012 | 57 | 313 | 0.0 | 2.0 | 0.00 | 0.00 | 0.00 | 74 | 1021.4 |
| 20260903011012 | 58 | 313 | 1.0 | 2.0 | 0.00 | 0.00 | 0.00 | 73 | 1021.3 |
| 20260903010012 | 58 | 313 | 1.0 | 2.0 | 0.00 | 0.00 | 0.00 | 74 | 1021.2 |
| 20260903005012 | 58 | 313 | 0.0 | 2.0 | 0.00 | 0.00 | 0.00 | 73 | 1021.2 |
| 20260903004012 | 58 | 313 | 1.0 | 3.0 | 0.00 | 0.00 | 0.00 | 72 | 1021.1 |
| 20260903003012 | 58 | 313 | 1.0 | 3.0 | 0.00 | 0.00 | 0.00 | 72 | 1021.1 |
| 20260903002011 | 59 | 313 | 2.0 | 3.0 | 0.00 | 0.00 | 0.00 | 72 | 1021.1 |
| 20260903001011 | 59 | 313 | 1.0 | 3.0 | 0.00 | 0.00 | 0.00 | 72 | 1021.1 |
| 20260903000011 | 59 | 313 | 1.0 | 4.0 | 0.00 | 0.00 | 0.00 | 72 | 1021.0 |
| 20260902235011 | 60 | 313 | 0.0 | 0.0 | 0.00 | 0.00 | 0.00 | 71 | 1021.0 |
| 20260902234011 | 60 | 313 | 1.0 | 2.0 | 0.00 | 0.00 | 0.00 | 71 | 1021.0 |
| 20260902233012 | 60 | 313 | 1.0 | 3.0 | 0.00 | 0.00 | 0.00 | 71 | 1021.2 |
| 20260902232012 | 60 | 313 | 1.0 | 4.0 | 0.00 | 0.00 | 0.00 | 71 | 1021.1 |
| 20260902231011 | 61 | 325 | 1.0 | 3.0 | 0.00 | 0.00 | 0.00 | 70 | 1021.0 |
| 20260902230011 | 61 | 325 | 0.0 | 3.0 | 0.00 | 0.00 | 0.00 | 70 | 1021.1 |
| 20260902225011 | 61 | 325 | 0.0 | 0.0 | 0.00 | 0.00 | 0.00 | 70 | 1021.1 |
| 20260902224011 | 61 | 325 | 0.0 | 0.0 | 0.00 | 0.00 | 0.00 | 70 | 1021.1 |
| 20260902223011 | 62 | 325 | 0.0 | 0.0 | 0.00 | 0.00 | 0.00 | 69 | 1021.1 |
| 20260902222011 | 62 | 325 | 0.0 | 0.0 | 0.00 | 0.00 | 0.00 | 70 | 1021.2 |
| 20260902221011 | 62 | 325 | 0.0 | 0.0 | 0.00 | 0.00 | 0.00 | 69 | 1021.1 |
| 20260902220011 | 62 | 325 | 0.0 | 0.0 | 0.00 | 0.00 | 0.00 | 69 | 1021.0 |
| 20260902215011 | 62 | 325 | 0.0 | 0.0 | 0.00 | 0.00 | 0.00 | 69 | 1021.0 |
| 20260902214011 | 62 | 325 | 0.0 | 2.0 | 0.00 | 0.00 | 0.00 | 69 | 1021.1 |
| 20260902213011 | 62 | 325 | 1.0 | 3.0 | 0.00 | 0.00 | 0.00 | 68 | 1021.0 |
| 20260902212011 | 62 | 325 | 0.0 | 0.0 | 0.00 | 0.00 | 0.00 | 68 | 1021.1 |
| 20260902211011 | 63 | 325 | 1.0 | 3.0 | 0.00 | 0.00 | 0.00 | 68 | 1021.0 |
| 20260902210011 | 63 | 325 | 1.0 | 3.0 | 0.00 | 0.00 | 0.00 | 68 | 1021.0 |
| 20260902205011 | 63 | 325 | 2.0 | 3.0 | 0.00 | 0.00 | 0.00 | 68 | 1020.9 |
| 20260902204011 | 63 | 325 | 2.0 | 3.0 | 0.00 | 0.00 | 0.00 | 67 | 1020.8 |
| 20260902203010 | 63 | 325 | 2.0 | 3.0 | 0.00 | 0.00 | 0.00 | 66 | 1020.8 |
| 20260902202010 | 63 | 325 | 1.0 | 3.0 | 0.00 | 0.00 | 0.00 | 66 | 1020.7 |
| 20260902201010 | 64 | 325 | 1.0 | 3.0 | 0.00 | 0.00 | 0.00 | 66 | 1020.5 |
| 20260902200010 | 64 | 325 | 0.0 | 2.0 | 0.00 | 0.00 | 0.00 | 65 | 1020.5 |
| 20260902195010 | 64 | 325 | 1.0 | 3.0 | 0.00 | 0.00 | 0.00 | 64 | 1020.5 |
| 20260902194010 | 64 | 325 | 2.0 | 3.0 | 0.00 | 0.00 | 0.00 | 65 | 1020.5 |
| 20260902193010 | 65 | 325 | 2.0 | 3.0 | 0.00 | 0.00 | 0.00 | 64 | 1020.4 |
| 20260902192010 | 65 | 325 | 0.0 | 3.0 | 0.00 | 0.00 | 0.00 | 63 | 1020.5 |
| 20260902191010 | 65 | 325 | 0.0 | 0.0 | 0.00 | 0.00 | 0.00 | 62 | 1020.4 |
| 20260902190010 | 66 | 325 | 0.0 | 0.0 | 0.00 | 0.00 | 0.00 | 61 | 1020.2 |
| 20260902185010 | 66 | 325 | 0.0 | 0.0 | 0.00 | 0.00 | 0.00 | 60 | 1020.2 |
| 20260902184010 | 67 | 325 | 1.0 | 2.0 | 0.00 | 0.00 | 0.00 | 59 | 1020.0 |
| 20260902183010 | 67 | 325 | 1.0 | 2.0 | 0.00 | 0.00 | 0.00 | 58 | 1019.9 |
| 20260902182010 | 68 | 325 | 0.0 | 0.0 | 0.00 | 0.00 | 0.00 | 57 | 1019.8 |
| 20260902181010 | 68 | 325 | 0.0 | 0.0 | 0.00 | 0.00 | 0.00 | 56 | 1019.7 |
| 20260902180011 | 69 | 325 | 1.0 | 2.0 | 0.00 | 0.00 | 0.00 | 55 | 1019.6 |
| 20260902175010 | 70 | 325 | 0.0 | 2.0 | 0.00 | 0.00 | 0.00 | 55 | 1019.5 |
| 20260902174010 | 70 | 325 | 2.0 | 4.0 | 0.00 | 0.00 | 0.00 | 54 | 1019.5 |
| 20260902173009 | 71 | 321 | 2.0 | 5.0 | 0.00 | 0.00 | 0.00 | 53 | 1019.4 |
| 20260902172010 | 71 | 321 | 2.0 | 5.0 | 0.00 | 0.00 | 0.00 | 53 | 1019.4 |
| 20260902171010 | 72 | 299 | 4.0 | 8.0 | 0.00 | 0.00 | 0.00 | 53 | 1019.4 |
| 20260902170011 | 71 | 263 | 4.0 | 9.0 | 0.00 | 0.00 | 0.00 | 54 | 1019.4 |
| 20260902165010 | 71 | 304 | 3.0 | 8.0 | 0.00 | 0.00 | 0.00 | 54 | 1019.4 |
| 20260902164009 | 72 | 294 | 3.0 | 9.0 | 0.00 | 0.00 | 0.00 | 53 | 1019.3 |
| 20260902163011 | 72 | 275 | 6.0 | 11.0 | 0.00 | 0.00 | 0.00 | 54 | 1019.3 |
| 20260902162009 | 72 | 263 | 3.0 | 7.0 | 0.00 | 0.00 | 0.00 | 53 | 1019.4 |
| 20260902161009 | 73 | 268 | 3.0 | 7.0 | 0.00 | 0.00 | 0.00 | 53 | 1019.3 |
| 20260902160011 | 73 | 268 | 3.0 | 7.0 | 0.00 | 0.00 | 0.00 | 53 | 1019.3 |
| 20260902155010 | 73 | 267 | 2.0 | 10.0 | 0.00 | 0.00 | 0.00 | 52 | 1019.4 |
| 20260902154009 | 73 | 255 | 3.0 | 9.0 | 0.00 | 0.00 | 0.00 | 53 | 1019.5 |
| 20260902153015 | 73 | 255 | 2.0 | 9.0 | 0.00 | 0.00 | 0.00 | 53 | 1019.5 |
| 20260902152013 | 74 | 268 | 5.0 | 11.0 | 0.00 | 0.00 | 0.00 | 52 | 1019.5 |
| 20260902151013 | 74 | 242 | 5.0 | 15.0 | 0.00 | 0.00 | 0.00 | 52 | 1019.5 |
| 20260902150014 | 74 | 238 | 2.0 | 5.0 | 0.00 | 0.00 | 0.00 | 52 | 1019.4 |
| 20260902145013 | 75 | 273 | 2.0 | 6.0 | 0.00 | 0.00 | 0.00 | 49 | 1019.4 |
| 20260902144013 | 75 | 230 | 3.0 | 7.0 | 0.00 | 0.00 | 0.00 | 50 | 1019.5 |
| 20260902143013 | 76 | 239 | 3.0 | 7.0 | 0.00 | 0.00 | 0.00 | 49 | 1019.5 |
| 20260902142013 | 76 | 225 | 4.0 | 10.0 | 0.00 | 0.00 | 0.00 | 47 | 1019.6 |
| 20260902141013 | 77 | 290 | 5.0 | 13.0 | 0.00 | 0.00 | 0.00 | 48 | 1019.6 |
| 20260902140013 | 77 | 221 | 4.0 | 10.0 | 0.00 | 0.00 | 0.00 | 51 | 1019.5 |
| 20260902135013 | 76 | 289 | 4.0 | 8.0 | 0.00 | 0.00 | 0.00 | 48 | 1019.6 |
| 20260902134013 | 77 | 277 | 3.0 | 8.0 | 0.00 | 0.00 | 0.00 | 47 | 1019.6 |
| 20260902133013 | 75 | 153 | 4.0 | 9.0 | 0.00 | 0.00 | 0.00 | 50 | 1019.6 |
| 20260902132013 | 75 | 275 | 5.0 | 11.0 | 0.00 | 0.00 | 0.00 | 50 | 1019.7 |
| 20260902131013 | 75 | 274 | 4.0 | 9.0 | 0.00 | 0.00 | 0.00 | 51 | 1019.7 |
| 20260902130013 | 75 | 231 | 3.0 | 7.0 | 0.00 | 0.00 | 0.00 | 49 | 1019.9 |
| 20260902125012 | 75 | 260 | 2.0 | 6.0 | 0.00 | 0.00 | 0.00 | 52 | 1019.8 |
| 20260902124012 | 75 | 262 | 4.0 | 8.0 | 0.00 | 0.00 | 0.00 | 53 | 1019.9 |
| 20260902123013 | 76 | 261 | 1.0 | 4.0 | 0.00 | 0.00 | 0.00 | 53 | 1020.0 |
| 20260902122013 | 75 | 254 | 1.0 | 4.0 | 0.00 | 0.00 | 0.00 | 52 | 1020.0 |
| 20260902121013 | 74 | 255 | 1.0 | 4.0 | 0.00 | 0.00 | 0.00 | 53 | 1020.1 |
| 20260902120012 | 73 | 339 | 3.0 | 8.0 | 0.00 | 0.00 | 0.00 | 55 | 1020.2 |
| 20260902115012 | 73 | 312 | 3.0 | 8.0 | 0.00 | 0.00 | 0.00 | 53 | 1020.4 |
| 20260902114012 | 75 | 250 | 3.0 | 7.0 | 0.00 | 0.00 | 0.00 | 52 | 1020.4 |
| 20260902113012 | 76 | 132 | 3.0 | 7.0 | 0.00 | 0.00 | 0.00 | 51 | 1020.6 |
| 20260902112012 | 76 | 138 | 3.0 | 7.0 | 0.00 | 0.00 | 0.00 | 52 | 1020.6 |
| 20260902111012 | 75 | 290 | 3.0 | 8.0 | 0.00 | 0.00 | 0.00 | 50 | 1020.7 |
| 20260902110012 | 74 | 180 | 3.0 | 7.0 | 0.00 | 0.00 | 0.00 | 50 | 1020.9 |
| 20260902105012 | 74 | 153 | 2.0 | 5.0 | 0.00 | 0.00 | 0.00 | 59 | 1021.0 |
| 20260902104012 | 73 | 139 | 2.0 | 5.0 | 0.00 | 0.00 | 0.00 | 62 | 1021.2 |
| 20260902103012 | 72 | 197 | 3.0 | 5.0 | 0.00 | 0.00 | 0.00 | 62 | 1021.3 |
| 20260902102012 | 71 | 132 | 2.0 | 7.0 | 0.00 | 0.00 | 0.00 | 64 | 1021.4 |
| 20260902101012 | 70 | 90 | 1.0 | 4.0 | 0.00 | 0.00 | 0.00 | 64 | 1021.5 |
| 20260902100012 | 69 | 80 | 0.0 | 3.0 | 0.00 | 0.00 | 0.00 | 69 | 1021.6 |
| 20260902095012 | 68 | 78 | 0.0 | 1.0 | 0.00 | 0.00 | 0.00 | 71 | 1021.7 |
| 20260902094012 | 67 | 78 | 0.0 | 2.0 | 0.00 | 0.00 | 0.00 | 71 | 1021.6 |
| 20260902093012 | 67 | 79 | 1.0 | 4.0 | 0.00 | 0.00 | 0.00 | 74 | 1021.7 |
| 20260902092011 | 66 | 79 | 2.0 | 4.0 | 0.00 | 0.00 | 0.00 | 75 | 1021.7 |
| 20260902091011 | 65 | 79 | 2.0 | 4.0 | 0.00 | 0.00 | 0.00 | 74 | 1021.7 |
| 20260902090011 | 65 | 78 | 3.0 | 4.0 | 0.00 | 0.00 | 0.00 | 74 | 1021.7 |
| 20260902085011 | 65 | 82 | 3.0 | 5.0 | 0.00 | 0.00 | 0.00 | 76 | 1021.6 |
| 20260902084011 | 64 | 80 | 2.0 | 4.0 | 0.00 | 0.00 | 0.00 | 77 | 1021.6 |
| 20260902083011 | 63 | 80 | 2.0 | 4.0 | 0.00 | 0.00 | 0.00 | 78 | 1021.5 |
| 20260902082012 | 63 | 80 | 2.0 | 3.0 | 0.00 | 0.00 | 0.00 | 80 | 1021.6 |